Flag for U.S.A. Weather past 2 weeks in Stamford, Connecticut, U.S.A.

Now
77 °F

Scattered clouds.


Feels Like: 77 °F
Forecast: 49 / 76 °F
Wind: 3 mph from North

Location: Westchester County Airport

Current Time: Apr 18, 2015 at 4:20:22 PM

Latest Report: Apr 18, 2015 at 3:56 PM


Visibility: 10 mi

Pressure: 29.84 "Hg

Humidity: 24%

Dew point: 37 °F

Location of StamfordLocation

Historic Weather in Stamford — Graph

°F

Stamford temperature yesterday

Maximum temperature yesterday: 68 °F (at 4:56 PM)
Minimum temperature yesterday: 50 °F (at 3:56 AM)
Average temperature yesterday: 58 °F

Past Weeks' High & Low Weather Summary

 TemperatureHumidityPressure
High76 °F (Apr 18, 2:56 PM)100% (Apr 3, 10:56 PM)30.48 "Hg (Apr 3, 10:56 PM)
Low30 °F (Apr 5, 4:56 AM)15% (Apr 15, 5:56 PM)29.44 "Hg (Apr 4, 3:56 AM)
Average50 °F62%30.13 "Hg
* Reported Apr 3 2:56 PM — Apr 18 2:56 PM, Stamford, Weather by CustomWeather, © 2015

Note: Actual official high and low records may vary slightly from our data, if they occured in-between our weather recording intervals... More about our weather records

Advertising

Stamford weather history for previous 24 hours

 ConditionsComfort  
Time TempWeatherWind HumidityBarometerVisibility
2:56 PM
Sat, Apr 18
76 °FScattered clouds.13 mph26%29.86 "Hg10 mi
1:56 PM75 °FPassing clouds.9 mph28%29.88 "Hg10 mi
12:56 PM73 °FPassing clouds.15 mph29%29.92 "Hg10 mi
11:56 AM71 °FSunny.6 mph34%29.95 "Hg10 mi
10:56 AM68 °FSunny.7 mph44%29.97 "Hg10 mi
9:56 AM65 °FSunny.8 mph49%29.98 "Hg10 mi
8:56 AM62 °FSunny.6 mph56%29.98 "Hg10 mi
7:56 AM55 °FSunny.6 mph74%29.99 "Hg10 mi
6:56 AM49 °FClear.5 mph84%29.97 "Hg10 mi
5:56 AM47 °FClear.5 mph86%29.96 "Hg10 mi
4:56 AM48 °FClear.5 mph83%29.95 "Hg10 mi
3:56 AM49 °FClear.6 mph80%29.95 "Hg10 mi
2:56 AM51 °FClear.3 mph80%29.95 "Hg10 mi
1:56 AM54 °FClear.3 mph72%29.96 "Hg10 mi
12:56 AM54 °FClear.7 mph74%29.97 "Hg10 mi
11:56 PM
Fri, Apr 17
59 °FPassing clouds.9 mph69%29.97 "Hg10 mi
10:56 PM59 °FPartly cloudy.7 mph78%29.96 "Hg10 mi
9:56 PM57 °FPassing clouds.3 mph81%29.95 "Hg10 mi
8:56 PM60 °FPassing clouds.3 mph69%29.93 "Hg10 mi
7:56 PM63 °FPassing clouds.6 mph65%29.91 "Hg10 mi
6:56 PM67 °FBroken clouds.6 mph61%29.90 "Hg10 mi
5:56 PM68 °FMostly cloudy.3 mph59%29.89 "Hg10 mi
4:56 PM68 °FPartly sunny.3 mph59%29.89 "Hg10 mi
Weather by CustomWeather, © 2015

See weather overviewHow to use our weather pages